sat.trackr.live / text

‹ back to catalog

STARLINK-33931

NORAD 64006 · 2025-101N

PAYLOAD ACTIVE UNKNOWN

§ Identity

Operator
Country
US
Launch date
2025-05-14
Launch site
AFETR
Launch vehicle
Mass (kg)
RCS (m²)

Purposes: comms

External: N2YO · Heavens-Above · Gunter

§ Orbital elements

Epoch: 2026-09-20T12:05:16.910880Z

Period
94.26 min
Inclination
42.9992°
Eccentricity
0.0000739
Mean motion
15.27615119 rev/d
Perigee alt
482.4 km
Apogee alt
483.5 km
Semi-major
6,861.1 km
B*
4.0844e-4
RAAN
337.3971°
Arg perigee
168.8395°
Mean anomaly
191.2474°
Rev number
7,687

§ Raw data

STARLINK-339311 64006U 25101N   26263.50366795  .00011006  00000+0  40844-3 0  99952 64006  42.9992 337.3971 0000739 168.8395 191.2474 15.27615119 76879

JSON: /api/v1/satellites/64006 · /tle

For live sub-satellite position, see the globe view (requires WebGL).

§ Visibility from observer

Set your observer location to see the next 7 days of passes ≥ 10°. The values pass through the URL so the page stays shareable.

No JS? Fill the form by hand. The geolocation button needs JavaScript.